Skip Page Navigation
NASA JPL Caltech
NASA Logo - Jet Propulsion Laboratory + View the NASA Portal
+ Center for Near-Earth Object Studies
JPL Home Earth Solar System Stars & Galaxies Technology
JPL Solar System Dynamics
BODIES ORBITS EPHEMERIDES TOOLS PHYSICAL DATA DISCOVERY FAQ SITE MAP
IMPORTANT: The SSD Announcement email list is now available. Major changes are coming in the near future, including possible hostname and/or URL changes. To be notified of such changes, subscribe to this email list.

Please visit this page for more details.


JPL Small-Body Database Browser
Search: [ help ]  
147595 Gojkomitic (2004 GE20)
Classification: Main-belt Asteroid          SPK-ID: 2147595
Ephemeris | Orbit Diagram | Orbital Elements | Mission Design | Physical Parameters | Discovery Circumstances | Close-Approach Data ]

[ show orbit diagram ]
Orbital Elements at Epoch 2458600.5 (2019-Apr-27.0) TDB
Reference: JPL 16 (heliocentric ecliptic J2000)
 Element Value Uncertainty (1-sigma)   Units 
e .09657235057663134 5.6715e-08  
a 2.542016408263428 1.6877e-08 au
q 2.296527908513063 1.4616e-07 au
i 2.790570868202627 6.0185e-06 deg
node 240.9509951179919 0.0001017 deg
peri 276.1512357127317 0.0001106 deg
M 298.8798362016274 3.9721e-05 deg
tp 2458851.832099909891
(2020-Jan-03.33209991)
0.00016327 TDB
period 1480.355259944019
4.05
1.4742e-05
4.036e-08
d
yr
n .2431848690250297 2.4218e-09 deg/d
Q 2.787504908013793 1.8506e-08 au
  Orbit Determination Parameters
   # obs. used (total)      472  
   data-arc span      6826 days (18.69 yr)  
   first obs. used      2000-04-25  
   last obs. used      2019-01-02  
   planetary ephem.      DE431  
   SB-pert. ephem.      SB431-N16  
   condition code      0  
   norm. resid. RMS      .60105  
   source      ORB  
   producer      Otto Matic  
   solution date      2019-Jul-13 18:23:47  

Additional Information
 Earth MOID = 1.30828 au 
 Jupiter MOID = 2.20724 au 
 T_jup = 3.437 
[ show covariance matrix ]

Ephemeris | Orbit Diagram | Orbital Elements | Mission Design | Physical Parameters | Discovery Circumstances | Close-Approach Data ]

Physical Parameter Table
Parameter Symbol Value Units Sigma Reference Notes
absolute magnitude H 16.4   n/a MPO412895  

147595 Gojkomitić           Discovered 2004 Apr. 14 by A. Knöfel and G. Lehmann at Drebach.
Serbian actor and stuntman Gojko Mitić (b. 1940) starred as a Native American in several German Western movies and the Karl May Festival in Bad Segeberg (Germany).
NOTE: some special characters may not display properly (any characters within {} are an attempt to place the proper accent above a character)
Reference: 20130127/MPCPages.arcLast Updated: 2013-01-31

[ show close-approach data ]
Ephemeris | Orbit Diagram | Orbital Elements | Mission Design | Physical Parameters | Discovery Circumstances | Close-Approach Data ]
ABOUT SSD CREDITS/AWARDS PRIVACY/COPYRIGHT GLOSSARY LINKS
FirstGov 2020-Jan-19 07:32 UT
(server date/time)  
NASA Home Page
Site Manager:   Ryan S. Park
Webmaster  Alan B. Chamberlin